Waarnemingen

Advertentie
Mijn weer
Antwerpen, België (6450): temperatuur & dauwpunt: 11.10.2019 11:00:00 - 17.10.2019 11:00:00 (CEST)Antwerpen, België (6450): windsnelheid & windstoten: 11.10.2019 11:00:00 - 17.10.2019 11:00:00 (CEST)Antwerpen, België (6450): windrichting: 11.10.2019 11:00:00 - 17.10.2019 11:00:00 (CEST)Antwerpen, België (6450): luchtdruk: 11.10.2019 11:00:00 - 17.10.2019 11:00:00 (CEST)Antwerpen, België (6450): zicht: 11.10.2019 11:00:00 - 17.10.2019 11:00:00 (CEST)
Datum & Tijd tt [°C] td [°C] ff [km/u] ff [kn] fx [km/u] fx [kn] dd ppp [hPa] vv [km]
17.10.2019 11:00:00 13,5 10,3 15 8 - - ZZW 1010,8 10
17.10.2019 10:00:00 12,1 10,7 9 5 22 12 Z 1010,6 10
17.10.2019 09:00:00 12,2 10,9 11 6 25 14 ZW 1010,2 8
17.10.2019 08:00:00 12,4 11,5 13 7 - - ZW 1009,5 8
17.10.2019 07:00:00 12,5 11,6 11 6 18 10 WZW 1008,7 10
17.10.2019 06:00:00 12,9 11,8 13 7 22 12 W 1008,4 9
17.10.2019 05:00:00 13,3 12,5 15 8 - - W 1007,7 10
17.10.2019 04:00:00 14,1 13,1 16 9 32 18 ZW 1007,3 4,9
17.10.2019 03:00:00 14,3 13,0 15 8 29 16 ZZW 1006,9 10
17.10.2019 02:00:00 14,0 12,9 16 9 - - ZZW 1006,7 10
17.10.2019 01:00:00 13,8 12,8 18 10 32 18 Z 1006,6 9
17.10.2019 00:00:00 13,9 13,0 18 10 29 16 Z 1006,8 6
16.10.2019 23:00:00 14,0 13,1 18 10 - - Z 1006,9 6
16.10.2019 22:00:00 14,3 13,0 21 11 32 18 ZZW 1006,8 10
16.10.2019 21:00:00 14,3 13,3 18 10 29 16 Z 1006,8 8
16.10.2019 20:00:00 14,2 13,3 16 9 - - Z 1006,9 4,5
16.10.2019 19:00:00 14,2 13,2 16 9 29 16 Z 1006,8 5
16.10.2019 18:00:00 14,2 13,2 16 9 29 16 ZZW 1006,7 8
16.10.2019 17:00:00 14,3 13,2 18 10 - - ZZW 1006,8 8
16.10.2019 16:00:00 14,3 13,1 16 9 36 19 ZZW 1006,9 6
16.10.2019 15:00:00 14,7 13,1 21 11 32 18 ZZW 1006,8 10
16.10.2019 14:00:00 13,7 12,7 18 10 - - Z 1007,0 3,5
16.10.2019 13:00:00 13,0 12,0 16 9 32 18 Z 1007,4 4,5
16.10.2019 12:00:00 12,9 11,9 21 11 32 18 Z 1007,8 3,5
16.10.2019 11:00:00 12,9 10,7 18 10 - - Z 1008,1 8
16.10.2019 10:00:00 12,0 9,5 16 9 25 14 Z 1008,6 10
16.10.2019 09:00:00 10,6 9,1 13 7 18 10 ZZO 1008,7 10
16.10.2019 08:00:00 10,7 9,0 11 6 - - Z 1008,7 10
16.10.2019 07:00:00 11,2 9,2 13 7 25 14 Z 1009,0 10
16.10.2019 06:00:00 11,6 9,8 11 6 22 12 Z 1008,9 10
16.10.2019 05:00:00 12,4 10,2 13 7 - - ZZW 1009,0 10
16.10.2019 04:00:00 12,0 10,0 11 6 25 14 ZZW 1009,2 10
16.10.2019 03:00:00 12,1 9,7 15 8 25 14 ZZW 1009,2 10
16.10.2019 02:00:00 12,6 9,5 15 8 - - ZZW 1009,1 10
16.10.2019 01:00:00 13,3 10,0 13 7 18 10 ZZW 1008,8 10
16.10.2019 00:00:00 13,2 10,2 8 4 14 8 ZZW 1008,9 10
15.10.2019 23:00:00 13,4 10,1 8 4 - - ZZW 1008,9 10
15.10.2019 22:00:00 13,6 10,4 9 5 25 14 ZW 1008,5 10
15.10.2019 21:00:00 13,9 11,4 15 8 25 14 ZW 1007,9 10
15.10.2019 20:00:00 14,2 12,5 5 3 - - Z 1007,6 10
15.10.2019 19:00:00 14,5 12,9 9 5 11 6 Z 1006,8 10
15.10.2019 18:00:00 14,5 13,0 8 4 18 10 Z 1006,3 10
15.10.2019 17:00:00 14,8 13,1 9 5 - - Z 1006,6 10
15.10.2019 16:00:00 15,0 12,9 7 4 18 10 Z 1006,5 10
15.10.2019 15:00:00 15,6 12,3 11 6 18 10 Z 1006,5 10
15.10.2019 14:00:00 15,8 11,6 11 6 - - ZW 1006,5 10
15.10.2019 13:00:00 15,8 11,7 13 7 25 14 ZW 1006,6 10
15.10.2019 12:00:00 15,6 12,6 11 6 22 12 ZW 1006,7 10
15.10.2019 11:00:00 15,6 13,2 13 7 - - ZZW 1006,2 10
15.10.2019 10:00:00 15,1 13,2 9 5 18 10 Z 1006,3 10
15.10.2019 09:00:00 14,8 13,1 8 4 14 8 Z 1005,8 10
15.10.2019 08:00:00 14,9 13,2 9 5 - - ZW 1005,5 10
15.10.2019 07:00:00 15,4 12,8 9 5 22 12 ZZW 1005,4 10
15.10.2019 06:00:00 15,9 12,8 13 7 22 12 ZW 1005,2 10
15.10.2019 05:00:00 16,4 12,6 11 6 - - ZZW 1005,2 10
15.10.2019 04:00:00 16,9 12,2 16 9 29 16 ZW 1005,6 10
15.10.2019 03:00:00 17,5 11,6 13 7 32 18 ZZW 1005,0 10
15.10.2019 02:00:00 18,2 11,9 16 9 - - ZW 1005,4 10
15.10.2019 01:00:00 17,1 14,4 11 6 14 8 Z 1005,2 10
15.10.2019 00:00:00 15,7 14,3 9 5 11 6 ZO 1004,7 10
14.10.2019 23:00:00 16,5 14,1 4 2 - - - 1005,3 10
14.10.2019 22:00:00 17,0 15,3 8 4 14 8 ZO 1005,1 10
14.10.2019 21:00:00 18,1 15,0 5 3 11 6 ZZO 1005,8 10
14.10.2019 20:00:00 17,3 14,6 5 3 - - O 1005,7 10
14.10.2019 19:00:00 20,1 14,8 11 6 18 10 ZZO 1005,8 10
14.10.2019 18:00:00 20,3 15,9 8 4 14 8 ZO 1005,7 10
14.10.2019 17:00:00 21,2 15,9 9 5 - - ZO 1006,5 10
14.10.2019 16:00:00 20,9 15,2 13 7 25 14 ZO 1007,3 10
14.10.2019 15:00:00 21,2 15,3 15 8 25 14 ZO 1007,8 10
14.10.2019 14:00:00 20,3 15,8 16 9 - - OZO 1008,7 10
14.10.2019 13:00:00 17,4 14,6 16 9 22 12 O 1010,0 10
14.10.2019 12:00:00 14,8 13,6 11 6 29 16 O 1011,1 10
14.10.2019 11:00:00 14,9 13,2 15 8 - - O 1011,4 10
14.10.2019 10:00:00 13,7 12,7 9 5 14 8 ONO 1012,0 10
14.10.2019 09:00:00 12,5 11,8 5 3 11 6 O 1012,2 10
14.10.2019 08:00:00 11,7 11,1 4 2 - - ONO 1012,6 7
14.10.2019 07:00:00 11,4 11,0 4 2 7 4 ZZO 1013,1 4,0
14.10.2019 06:00:00 11,0 10,7 5 3 11 6 ZO 1013,1 1,4
14.10.2019 05:00:00 13,5 12,6 8 4 - - ZZO 1013,0 10
14.10.2019 04:00:00 14,2 13,0 5 3 18 10 ZZW 1013,2 10
14.10.2019 03:00:00 14,5 13,0 13 7 22 12 W 1013,4 10
14.10.2019 02:00:00 14,6 12,9 15 8 - - WZW 1013,2 10
14.10.2019 01:00:00 14,7 13,3 11 6 18 10 WZW 1012,7 10
14.10.2019 00:00:00 14,8 13,5 13 7 18 10 ZW 1012,3 10
13.10.2019 23:00:00 14,9 13,6 11 6 - - ZW 1011,5 10
13.10.2019 22:00:00 14,7 13,6 15 8 43 23 WZW 1010,8 7
13.10.2019 21:00:00 16,1 13,0 28 15 43 23 W 1009,8 10
13.10.2019 20:00:00 17,0 15,5 24 13 - - W 1008,6 4,0
13.10.2019 19:00:00 22,0 14,7 24 13 43 23 ZZW 1006,5 10
13.10.2019 18:00:00 22,3 14,5 21 11 47 25 ZZW 1006,5 10
13.10.2019 17:00:00 22,8 14,4 29 16 - - ZW 1006,5 10
13.10.2019 16:00:00 23,2 14,8 24 13 50 27 ZZW 1006,4 10
13.10.2019 15:00:00 23,2 14,2 24 13 50 27 ZZW 1005,8 10
13.10.2019 14:00:00 22,8 14,0 29 16 - - Z 1005,7 20
13.10.2019 13:00:00 21,5 14,5 22 12 43 23 Z 1006,5 10
13.10.2019 12:00:00 21,3 15,3 21 11 32 18 Z 1007,0 10
13.10.2019 11:00:00 19,2 15,9 15 8 - - Z 1007,1 10
13.10.2019 10:00:00 16,4 15,5 9 5 14 8 ZZO 1007,4 10
13.10.2019 09:00:00 15,2 14,5 9 5 11 6 ZZO 1007,3 9
13.10.2019 08:00:00 14,0 13,5 9 5 - - Z 1007,7 7
13.10.2019 07:00:00 14,3 13,8 5 3 11 6 ZZO 1007,6 5
13.10.2019 06:00:00 14,8 14,0 8 4 14 8 Z 1007,9 10
13.10.2019 05:00:00 15,8 14,6 9 5 - - Z 1008,3 10
13.10.2019 04:00:00 16,2 14,6 13 7 18 10 Z 1008,2 10
13.10.2019 03:00:00 15,9 14,2 11 6 18 10 ZZO 1008,8 10
13.10.2019 02:00:00 15,4 13,9 11 6 - - Z 1009,1 17
13.10.2019 01:00:00 14,7 13,5 8 4 14 8 ZZO 1009,6 8
13.10.2019 00:00:00 15,2 13,5 9 5 18 10 Z 1009,9 10
12.10.2019 23:00:00 15,6 13,7 11 6 - - ZZW 1009,9 10
12.10.2019 22:00:00 15,7 13,7 13 7 18 10 ZZW 1010,0 10
12.10.2019 21:00:00 15,9 13,7 11 6 22 12 Z 1009,7 10
12.10.2019 20:00:00 16,2 13,3 9 5 - - Z 1009,4 10
12.10.2019 19:00:00 17,3 13,4 9 5 22 12 ZZW 1009,4 10
12.10.2019 18:00:00 18,1 13,0 16 9 32 18 ZZW 1009,2 10
12.10.2019 17:00:00 18,2 13,0 16 9 - - ZZW 1009,8 10
12.10.2019 16:00:00 18,5 12,7 15 8 29 16 ZW 1010,1 10
12.10.2019 15:00:00 18,0 12,4 16 9 36 19 ZW 1010,5 10
12.10.2019 14:00:00 18,1 12,7 21 11 - - ZW 1010,6 10
12.10.2019 13:00:00 17,1 12,3 22 12 40 21 ZW 1010,3 10
12.10.2019 12:00:00 16,5 12,0 18 10 36 19 ZW 1010,1 10
12.10.2019 11:00:00 15,6 11,7 21 11 - - ZW 1010,0 10
12.10.2019 10:00:00 15,0 11,4 22 12 36 19 ZW 1009,5 10
12.10.2019 09:00:00 14,3 11,5 21 11 32 18 ZW 1008,9 10
12.10.2019 08:00:00 14,4 11,3 18 10 - - ZW 1008,5 10
12.10.2019 07:00:00 14,4 11,5 22 12 40 21 ZZW 1008,3 10
12.10.2019 06:00:00 14,4 11,4 16 9 32 18 ZW 1008,2 10
12.10.2019 05:00:00 15,1 11,5 18 10 - - ZW 1008,3 10
12.10.2019 04:00:00 16,0 11,5 16 9 29 16 ZW 1008,3 10
12.10.2019 03:00:00 16,5 11,7 15 8 32 18 ZW 1008,5 10
12.10.2019 02:00:00 16,5 12,1 15 8 - - ZZW 1008,4 10
12.10.2019 01:00:00 16,7 12,1 21 11 36 19 ZZW 1008,5 10
12.10.2019 00:00:00 17,2 12,1 22 12 40 21 ZZW 1008,9 10
11.10.2019 23:00:00 17,0 11,9 21 11 - - ZW 1009,6 10
11.10.2019 22:00:00 16,9 12,0 21 11 40 21 ZW 1009,4 10
11.10.2019 21:00:00 16,9 11,9 22 12 43 23 ZZW 1009,4 10
11.10.2019 20:00:00 16,5 12,1 26 14 - - ZZW 1009,8 10
11.10.2019 19:00:00 16,3 12,2 26 14 40 21 ZZW 1009,9 10
11.10.2019 18:00:00 16,2 12,0 22 12 43 23 ZZW 1009,8 10
11.10.2019 17:00:00 15,8 11,9 24 13 - - ZZW 1010,1 10
11.10.2019 16:00:00 15,1 12,4 22 12 40 21 ZZW 1010,7 10
11.10.2019 15:00:00 15,3 11,9 21 11 47 25 ZZW 1011,5 10
11.10.2019 14:00:00 14,9 11,8 21 11 - - ZZW 1012,0 10
11.10.2019 13:00:00 14,4 11,7 26 14 43 23 ZZW 1012,5 10
11.10.2019 12:00:00 14,4 11,6 26 14 40 21 ZZW 1012,8 10
11.10.2019 11:00:00 13,9 11,8 24 13 - - ZZW 1013,0 10

tt = temperatuur
td = dauwpunt
ff = windsnelheid
fx = windstoten
dd = windrichting
ppp = luchtdruk
vv = zicht

Weerstations in de omgeving